Location: Gouvernes
(48.8601°N, 2.6907°E)
Time: 22:54:56
(UTC+00:00)

Cosmos 2297 Rocket - Pass Details

Date: 16 October 2021
Orbit: 839 x 844 km, 71.0° (Epoch: 07 December)

Event Time Altitude Azimuth Distance (km) Brightness Sun altitude
Rises 17:13:48 0° 330° (NNW) 3,406 5.6 -3.5°
Reaches altitude 10° 17:16:16 10° 328° (NNW) 2,468 5.0 -3.9°
Maximum altitude 17:21:54 72° 246° (WSW) 887 2.6 -4.8°
Drops below altitude 10° 17:27:30 10° 163° (SSE) 2,455 4.5 -5.7°
Sets 17:29:57 0° 161° (SSE) 3,386 5.2 -6.1°
